Location: Bremen
(53.0793°N, 8.8017°E)
Time: 21:25:39
(UTC+01:00)

Transit 2A - Pass Details

Date: 30 November 2022
Orbit: 593 x 963 km, 66.7° (Epoch: 05 February)

Event Time Altitude Azimuth Distance (km) Brightness Sun altitude
Rises 17:35:33 0° 319° (NW) 3,142 9.5 -11.8°
Reaches altitude 10° 17:37:49 10° 317° (NW) 2,271 8.8 -12.1°
Maximum altitude 17:43:00 69° 235° (SW) 862 6.5 -12.8°
Drops below altitude 10° 17:48:45 10° 153° (SSE) 2,507 8.6 -13.6°
Sets 17:51:21 0° 151° (SSE) 3,493 9.3 -14.0°
